GW3985 Weather Reports


time (UTC)temp
F
wind
direction
speed
knots
gust
knots
rain 1hr
in
rain 24hr
in
rain mn
in
humidity
%
barometer
mb
20260903074017 62 141 0.9 1.7 0.00 0.00 0.00 66 1022.5
20260903073017 62 0.0 0.0 0.00 0.00 0.00 66 1022.6
20260903072015 62 140 0.0 2.6 0.00 0.00 0.00 66 1022.6
20260903071015 62 144 0.0 0.9 0.00 0.00 0.00 66 1022.7
20260903070036 63 0.0 0.0 0.00 0.00 0.00 65 1022.7
20260903065016 63 144 0.0 0.9 0.00 0.00 0.00 65 1022.7
20260903064017 63 144 0.0 2.6 0.00 0.00 0.00 64 1022.5
20260903063037 63 144 0.0 1.7 0.00 0.00 0.00 64 1022.7
20260903062015 63 144 0.0 0.9 0.00 0.00 0.00 65 1022.9
20260903061015 64 144 0.0 0.9 0.00 0.00 0.00 64 1022.8
20260903060035 64 144 0.0 0.9 0.00 0.00 0.00 64 1022.8
20260903055016 64 0.0 0.0 0.00 0.00 0.00 64 1022.6
20260903054036 65 221 0.0 0.9 0.00 0.00 0.00 64 1022.5
20260903053037 65 0.0 0.0 0.00 0.00 0.00 62 1022.9
20260903052017 66 0.0 0.0 0.00 0.00 0.00 61 1023.1
20260903051015 66 0.0 0.0 0.00 0.00 0.00 61 1022.8
20260903050015 67 0.0 0.0 0.00 0.00 0.00 60 1022.8
20260903045015 67 0.0 0.0 0.00 0.00 0.00 59 1022.9
20260903044016 67 0.0 0.0 0.00 0.00 0.00 58 1023.0
20260903043016 68 0.0 0.0 0.00 0.00 0.00 57 1022.9
20260903042016 68 0.0 0.0 0.00 0.00 0.00 57 1022.9
20260903041017 69 0.0 0.0 0.00 0.00 0.00 55 1023.1
20260903040015 69 7 0.0 0.9 0.00 0.00 0.00 54 1022.8
20260903035015 70 338 0.0 1.7 0.00 0.00 0.00 53 1022.7
20260903034016 70 27 0.0 1.7 0.00 0.00 0.00 51 1022.5
20260903033016 71 12 0.9 3.5 0.00 0.00 0.00 50 1022.7
20260903032016 72 358 0.0 1.7 0.00 0.00 0.00 47 1022.4
20260903031017 73 71 0.0 1.7 0.00 0.00 0.00 46 1022.4
20260903030017 73 35 0.0 1.7 0.00 0.00 0.00 44 1022.4
20260903025015 74 83 0.0 1.7 0.00 0.00 0.00 44 1022.7
20260903024016 75 208 0.0 1.7 0.00 0.00 0.00 43 1022.0
20260903023016 76 25 0.0 1.7 0.00 0.00 0.00 43 1021.4
20260903022016 77 41 1.7 6.1 0.00 0.00 0.00 42 1021.0
20260903021016 76 71 0.9 3.5 0.00 0.00 0.00 40 1020.9
20260903020037 76 239 0.9 3.5 0.00 0.00 0.00 44 1021.2
20260903015035 76 283 0.0 0.9 0.00 0.00 0.00 43 1020.3
20260903014035 77 255 0.0 0.9 0.00 0.00 0.00 41 1020.0
20260903013015 78 93 0.0 0.9 0.00 0.00 0.00 40 1020.1
20260903012036 79 93 0.0 0.9 0.00 0.00 0.00 39 1020.0
20260903011016 79 89 0.0 1.7 0.00 0.00 0.00 38 1020.1
20260903010017 80 95 0.0 1.7 0.00 0.00 0.00 38 1020.2
20260903005017 80 76 0.0 1.7 0.00 0.00 0.00 37 1020.2
20260903004015 81 91 0.9 1.7 0.00 0.00 0.00 36 1020.1
20260903003015 81 94 0.0 0.9 0.00 0.00 0.00 36 1020.1
20260903002015 82 90 0.0 1.7 0.00 0.00 0.00 35 1020.1
20260903000516 83 69 0.0 2.6 0.00 0.00 0.00 35 1020.1
20260902235517 84 89 0.9 2.6 0.00 0.00 0.00 34 1020.1
20260902234517 85 87 1.7 5.2 0.00 0.00 0.00 33 1020.1
20260902233515 86 90 1.7 3.5 0.00 0.00 0.00 32 1020.2
20260902232515 86 92 1.7 2.6 0.00 0.00 0.00 31 1020.2
20260902231515 86 98 0.9 3.5 0.00 0.00 0.00 32 1020.3
20260902230516 86 88 1.7 3.5 0.00 0.00 0.00 31 1020.4
20260902225516 87 103 0.9 2.6 0.00 0.00 0.00 30 1020.4
20260902224517 87 94 1.7 3.5 0.00 0.00 0.00 32 1020.6
20260902223517 87 93 1.7 3.5 0.00 0.00 0.00 31 1020.6
20260902222515 86 92 1.7 2.6 0.00 0.00 0.00 30 1020.8
20260902221515 87 101 1.7 2.6 0.00 0.00 0.00 29 1021.0
20260902220516 87 87 0.9 2.6 0.00 0.00 0.00 31 1021.1
20260902215516 86 88 0.9 3.5 0.00 0.00 0.00 32 1021.3
20260902214516 86 88 1.7 2.6 0.00 0.00 0.00 31 1021.5
20260902213617 87 87 1.7 3.5 0.00 0.00 0.00 30 1021.7
20260902212517 86 99 0.9 3.5 0.00 0.00 0.00 30 1021.8
20260902211515 87 99 0.9 2.6 0.00 0.00 0.00 31 1022.0
20260902210535 87 86 0.9 3.5 0.00 0.00 0.00 30 1022.1
20260902205516 88 95 0.9 2.6 0.00 0.00 0.00 29 1022.2
20260902204516 87 92 0.0 1.7 0.00 0.00 0.00 30 1022.4
20260902203536 89 91 0.9 1.7 0.00 0.00 0.00 29 1022.4
20260902202517 87 102 0.9 1.7 0.00 0.00 0.00 30 1022.5
20260902201517 88 91 0.9 1.7 0.00 0.00 0.00 29 1022.7
20260902200515 87 268 0.0 0.9 0.00 0.00 0.00 30 1022.8
20260902195515 86 92 0.9 1.7 0.00 0.00 0.00 30 1022.9
20260902194515 86 95 0.0 1.7 0.00 0.00 0.00 30 1023.0
20260902193516 87 159 0.0 1.7 0.00 0.00 0.00 30 1023.0
20260902192516 86 100 0.0 1.7 0.00 0.00 0.00 31 1023.1
20260902191517 85 294 0.0 1.7 0.00 0.00 0.00 30 1023.4
20260902190517 86 90 0.0 0.9 0.00 0.00 0.00 31 1023.5
20260902185515 86 301 0.9 3.5 0.00 0.00 0.00 32 1023.7
20260902184515 85 280 0.0 1.7 0.00 0.00 0.00 33 1023.8
20260902183516 84 114 0.0 1.7 0.00 0.00 0.00 32 1024.0
20260902182516 83 330 0.0 0.9 0.00 0.00 0.00 33 1024.1
20260902181556 82 2 0.0 1.7 0.00 0.00 0.00 34 1024.4
20260902180517 82 115 0.0 1.7 0.00 0.00 0.00 35 1024.5
20260902175557 81 102 0.9 1.7 0.00 0.00 0.00 35 1024.6
20260902174015 81 296 0.0 0.9 0.00 0.00 0.00 37 1024.8
20260902173016 80 334 0.0 0.9 0.00 0.00 0.00 37 1024.9
20260902172016 79 99 0.0 0.9 0.00 0.00 0.00 38 1024.9
20260902171016 79 255 0.0 1.7 0.00 0.00 0.00 39 1025.0
20260902170016 78 93 0.9 2.6 0.00 0.00 0.00 39 1025.1
20260902165017 78 93 0.0 1.7 0.00 0.00 0.00 41 1025.1
20260902164015 77 94 0.0 0.9 0.00 0.00 0.00 41 1025.1
20260902163015 77 267 0.0 1.7 0.00 0.00 0.00 42 1025.1
20260902162015 76 279 0.0 0.9 0.00 0.00 0.00 42 1025.2
20260902161016 75 0.0 0.0 0.00 0.00 0.00 44 1025.1
20260902160016 75 0.0 0.0 0.00 0.00 0.00 46 1025.2
20260902155017 74 129 0.0 0.9 0.00 0.00 0.00 45 1025.3
20260902154017 73 133 0.0 0.9 0.00 0.00 0.00 45 1025.5
20260902153015 71 132 0.0 0.9 0.00 0.00 0.00 48 1025.6
20260902152016 70 133 0.0 0.9 0.00 0.00 0.00 51 1025.5
20260902151016 69 133 0.0 0.9 0.00 0.00 0.00 54 1025.6
20260902150016 68 133 0.0 0.9 0.00 0.00 0.00 54 1025.6
20260902145016 68 133 0.0 0.9 0.00 0.00 0.00 55 1025.5
20260902144017 67 0.0 0.0 0.00 0.00 0.00 58 1025.6
20260902143015 66 0.0 0.0 0.00 0.00 0.00 55 1025.4
20260902142015 65 0.0 0.0 0.00 0.00 0.00 58 1025.2
20260902141015 64 0.0 0.0 0.00 0.00 0.00 59 1025.2
20260902140036 63 0.0 0.0 0.00 0.00 0.00 62 1025.2
20260902135016 62 0.0 0.0 0.00 0.00 0.00 65 1025.2
20260902134017 61 0.0 0.0 0.00 0.00 0.00 66 1025.3
20260902133017 60 139 0.0 0.9 0.00 0.00 0.00 67 1025.2
20260902132015 59 0.0 0.0 0.00 0.00 0.00 68 1025.1
20260902131035 59 0.0 0.0 0.00 0.00 0.00 69 1025.0
20260902130015 58 0.0 0.0 0.00 0.00 0.00 69 1024.8
20260902125016 59 139 0.0 0.9 0.00 0.00 0.00 69 1024.7
20260902124016 59 0.0 0.0 0.00 0.00 0.00 68 1024.7
20260902123017 60 0.0 0.0 0.00 0.00 0.00 67 1024.5
20260902122017 60 0.0 0.0 0.00 0.00 0.00 67 1024.5
20260902121015 60 0.0 0.0 0.00 0.00 0.00 66 1024.4
20260902120015 60 139 0.0 0.9 0.00 0.00 0.00 67 1024.4
20260902115035 61 0.0 0.0 0.00 0.00 0.00 68 1024.3
20260902114016 61 139 0.0 0.9 0.00 0.00 0.00 65 1024.1
20260902113016 61 139 0.0 0.9 0.00 0.00 0.00 65 1024.1
20260902112017 61 140 0.0 1.7 0.00 0.00 0.00 65 1024.1
20260902111017 61 140 0.0 0.9 0.00 0.00 0.00 64 1024.0
20260902110015 61 141 0.9 1.7 0.00 0.00 0.00 64 1024.0
20260902105015 61 143 0.0 1.7 0.00 0.00 0.00 65 1024.0
20260902104036 60 139 0.9 2.6 0.00 0.00 0.00 67 1024.0
20260902103016 60 0.0 0.0 0.00 0.00 0.00 68 1023.9
20260902102017 60 0.0 0.0 0.00 0.00 0.00 67 1023.9
20260902101017 61 0.0 0.0 0.00 0.00 0.00 66 1024.0
20260902100014 61 0.0 0.0 0.00 0.00 0.00 66 1024.0
20260902095015 60 0.0 0.0 0.00 0.00 0.00 68 1024.1
20260902094015 60 0.0 0.0 0.00 0.00 0.00 69 1024.1
20260902093036 61 0.0 0.0 0.00 0.00 0.00 68 1024.0
20260902092016 61 0.0 0.0 0.00 0.00 0.00 68 1024.0
20260902091016 62 0.0 0.0 0.00 0.00 0.00 66 1024.0
20260902090017 63 0.0 0.0 0.00 0.00 0.00 65 1024.0
20260902085015 63 0.0 0.0 0.00 0.00 0.00 64 1023.9
20260902084015 64 0.0 0.0 0.00 0.00 0.00 63 1024.0
20260902083016 64 154 0.0 0.9 0.00 0.00 0.00 62 1024.0
20260902082016 65 136 0.0 1.7 0.00 0.00 0.00 62 1024.0
20260902081016 64 133 0.9 1.7 0.00 0.00 0.00 62 1024.1
20260902080037 64 133 0.9 2.6 0.00 0.00 0.00 61 1024.1
20260902075037 65 133 0.0 0.9 0.00 0.00 0.00 60 1024.2